Location: ????
(33.2301°N, 35.6387°E)
Time: 18:14:29
(UTC+00:00)

Daily predictions for brighter satellites

Satellite Brightness Start Highest point End
(mag) Time Altitude Azimuth Time Altitude Azimuth Time Altitude Azimuth
CZ-4C R/B 3.1 15:14:10 10° NNW 15:21:44 69° ENE 15:30:04 10° SE
Okean-O 2.6 15:21:05 10° SSE 15:25:29 73° ENE 15:29:55 10° N
Cosmos 1503 Rocket 4.1 15:21:35 10° N 15:26:39 53° ENE 15:31:41 10° SSE
Cosmos 1271 Rocket 3.1 15:23:47 10° N 15:27:37 44° E 15:31:26 10° SSE
Cosmos 1242 Rocket 3.9 15:25:27 10° NNE 15:28:14 20° ENE 15:30:59 10° SE
CZ-3 Stage 3 2.3 15:19:26 10° WSW 15:28:31 53° S 15:31:20 10° E
Meteosat 1 Rocket2 4.4 15:26:59 10° SSW 15:29:43 19° SSE 15:32:25 10° ESE
Cosmos 1821 Rocket 4.0 15:26:47 10° N 15:32:53 67° E 15:39:00 10° SSE
H-2A R/B 3.3 15:30:13 10° S 15:34:02 65° W 15:37:54 10° NNW
COBE Rocket 4.0 15:29:04 10° NNE 15:34:15 86° ESE 15:39:17 10° S
Nadezhda 3 Rocket 4.3 15:28:37 10° S 15:34:51 76° W 15:41:11 10° N
SL-4 R/B 2.7 15:33:16 10° NNW 15:36:41 30° NE 15:39:46 11° E
Meteor 2-10 4.1 15:33:26 10° S 15:38:24 52° E 15:43:17 10° NNE
OAO 3 Rocket 3.3 15:36:26 10° W 15:41:22 74° N 15:45:50 13° E
Cosmos 1934 Rocket 4.2 15:38:03 10° N 15:44:12 51° E 15:50:22 10° SSE
COSMOS 2406 4.0 15:40:02 10° N 15:45:02 30° ENE 15:49:59 10° ESE
COSMO-SKYMED 1 2.6 15:42:04 10° N 15:46:26 85° W 15:50:45 10° SSW
USA 116 3.4 15:43:22 10° NNE 15:46:32 51° ESE 15:49:56 10° S
Atlas Centaur 2 4.4 15:42:32 10° W 15:47:42 23° SSW 15:52:04 10° SSE
Cosmos 1703 4.0 15:45:53 10° NNE 15:49:23 30° E 15:52:51 10° SE
Cosmos 1953 4.2 15:46:34 10° SW 15:50:16 34° W 15:54:00 10° NNW
FengYun 1-2 T 4.2 15:48:52 10° SSE 15:54:28 69° ENE 16:00:04 10° N
Cosmos 1825 Rocket 4.3 15:50:51 10° NNW 15:55:08 56° W 15:59:26 10° S
YAOGAN 6 2.6 15:51:59 10° SSE 15:55:36 61° ENE 15:59:12 10° N
Abrixas rocket 3.3 15:53:36 10° WSW 15:56:28 37° NW 15:59:08 12° NE
Cosmos 1953 Rocket 3.6 15:53:18 10° N 15:57:41 83° W 16:01:59 10° S
Envisat 3.3 15:58:52 10° S 16:03:55 72° WSW 16:09:00 10° NNW
ADEOS Rocket 4.5 16:01:37 10° NE 16:06:53 20° E 16:11:51 10° SE
ATLAS 3B R/B 3.9 16:06:24 10° SSE 16:10:51 19° ESE 16:10:51 19° ESE
OAO 2 Rocket 3.4 16:07:07 10° W 16:12:24 78° N 16:15:25 26° E
Cosmos 2278 Rocket 2.1 16:09:14 10° SSW 16:14:53 87° ESE 16:20:36 10° NNE
Cosmos 1908 3.3 16:11:30 10° S 16:15:24 78° W 16:19:18 10° N
Cosmos 1939 Rocket 3.1 16:19:03 26° SE 16:20:50 43° ENE 16:24:39 10° N
Cosmos 1812 Rocket 3.7 16:18:03 10° SSE 16:22:15 48° E 16:26:32 10° NNE
CENTAUR R/B 3.6 16:18:53 10° SSE 16:21:39 20° SE 16:21:39 20° SE
Lacrosse 5 rocket 1.3 16:22:36 10° NW 16:26:28 78° SW 16:28:36 27° SSE
OAO 3 Copernicus 4.3 16:24:40 10° WSW 16:29:43 70° SSE 16:31:25 41° E
YAOGAN 1 3.1 16:27:26 10° S 16:31:42 61° W 16:35:59 10° NNW
USA 238 DEB 3.6 16:27:23 10° SSW 16:34:02 86° ESE 16:40:53 10° NNE
Delta 2 Rocket 2.9 16:30:43 10° WSW 16:33:54 59° S 16:33:54 59° S
USA 238 3.5 16:27:29 10° SSW 16:34:08 86° ESE 16:40:59 10° NNE
CSL-04 Rocket 4.2 16:31:51 10° S 16:37:19 62° WSW 16:42:48 10° NNW
Cosmos 44 4.3 16:36:29 10° S 16:39:42 30° SSE 16:39:42 30° SSE
CZ-4 R/B 3.4 16:40:02 10° SSW 16:43:39 30° W 16:47:20 10° NW
NOAA 11 4.1 16:39:34 10° SSE 16:45:01 88° ENE 16:50:29 10° NNW
Ariane Rocket 2.8 16:42:45 18° SSE 16:46:30 76° ENE 16:51:36 10° N
USA 234 3.5 16:46:19 41° ESE 16:47:22 43° SE 16:53:30 10° SSW
Lacrosse 5 3.9 16:51:53 10° N 16:53:36 15° NNE 16:53:36 15° NNE
CZ-2D R/B 4.3 16:56:57 19° SSW 16:59:25 45° W 17:03:07 10° NNW
NOSS 3-2 (A) 3.4 16:54:26 10° SW 17:00:00 72° WNW 17:03:50 24° NNE
Cosmos 1833 Rocket 2.7 16:57:36 10° NNW 17:02:33 59° NE 17:02:33 59° NE
Cosmos 1459 Rocket 4.4 17:09:52 10° N 17:14:23 48° NNE 17:14:23 48° NNE
SL-4 R/B 4.1 17:13:15 10° WNW 17:15:25 21° WSW 17:15:25 21° WSW
H-2A R/B 4.3 17:26:15 15° N 17:26:15 15° N 17:27:11 10° N
NOSS 3-2 (C) 3.3 17:17:23 10° SW 17:22:53 77° WNW 17:22:53 77° WNW
BREEZE M DEB (TANK) 3.9 17:20:57 10° NW 17:23:09 43° NNW 17:23:09 43° NNW
OAO 3 Rocket 4.1 17:20:07 10° WNW 17:23:38 46° WNW 17:23:38 46° WNW
Cosmos 2082 Rocket 3.3 17:19:29 10° NNW 17:22:45 35° N 17:22:45 35° N
ADEOS Rocket 3.7 17:45:18 10° N 17:52:50 65° WNW 17:59:46 10° SSW
ATLAS 3B R/B 3.7 17:54:14 10° SW 17:58:13 37° SW 17:58:13 37° SW
CENTAUR R/B 4.5 18:07:37 10° SW 18:08:57 18° WSW 18:08:57 18° WSW
